When you browse on this site, cookies collect data to enhance your experience and personalize the content and advertising you see.
Visit our Privacy Policy to learn more. By continuing to use the site, you agree to this use of cookies and data.
  • In Czech Republic
  • List of Countries
  • For 7 days
  • Water Temperature
  • Satellite Maps
  • Weather Map
  • Weather Widgets
  • user-avatar
    Login

    Hourly Weather Manama

    Today, 23 May, Thursday

    Time Temperature Precipitation Wind Pressure Humidity
    00:00 +33°C° 0 mm 1 mps 756 mmHg 35%
    01:00 +34°C° 0 mm 2 mps 756 mmHg 34%
    02:00 +34°C° 0 mm 3 mps 756 mmHg 33%
    03:00 +34°C° 0 mm 4 mps 755 mmHg 32%
    04:00 +34°C° 0 mm 4 mps 756 mmHg 31%
    05:00 +34°C° 0 mm 4 mps 756 mmHg 30%
    06:00 +35°C° 0 mm 5 mps 756 mmHg 29%
    07:00 +36°C° 0 mm 4 mps 756 mmHg 26%
    08:00 +37°C° 0 mm 4 mps 756 mmHg 22%
    09:00 +40°C° 0 mm 4 mps 756 mmHg 20%
    10:00 +40°C° 0 mm 3 mps 756 mmHg 19%
    11:00 +40°C° 0 mm 3 mps 756 mmHg 18%
    12:00 +41°C° 0 mm 2 mps 756 mmHg 17%
    13:00 +42°C° 0 mm 3 mps 756 mmHg 19%
    14:00 +41°C° 0 mm 5 mps 755 mmHg 21%
    15:00 +41°C° 0 mm 6 mps 755 mmHg 22%
    16:00 +40°C° 0 mm 6 mps 755 mmHg 26%
    17:00 +38°C° 0 mm 6 mps 755 mmHg 30%
    18:00 +36°C° 0 mm 6 mps 755 mmHg 33%
    19:00 +36°C° 0 mm 5 mps 755 mmHg 35%
    20:00 +35°C° 0 mm 3 mps 755 mmHg 37%
    21:00 +35°C° 0 mm 2 mps 756 mmHg 40%
    22:00 +34°C° 0 mm 2 mps 756 mmHg 39%
    23:00 +34°C° 0 mm 2 mps 755 mmHg 38%

    Tomorrow, 24 May, Friday

    Time Temperature Precipitation Wind Pressure Humidity
    00:00 +33°C° 0 mm 1 mps 755 mmHg 38%
    01:00 +34°C° 0 mm 2 mps 755 mmHg 36%
    02:00 +34°C° 0 mm 3 mps 755 mmHg 35%
    03:00 +34°C° 0 mm 3 mps 755 mmHg 33%
    04:00 +34°C° 0 mm 3 mps 755 mmHg 32%
    05:00 +34°C° 0 mm 4 mps 755 mmHg 31%
    06:00 +35°C° 0 mm 4 mps 755 mmHg 30%
    07:00 +36°C° 0 mm 4 mps 756 mmHg 26%
    08:00 +39°C° 0 mm 5 mps 756 mmHg 22%
    09:00 +40°C° 0 mm 5 mps 756 mmHg 18%
    10:00 +41°C° 0 mm 5 mps 756 mmHg 18%
    11:00 +42°C° 0 mm 5 mps 756 mmHg 17%
    12:00 +43°C° 0 mm 5 mps 756 mmHg 16%
    13:00 +42°C° 0 mm 5 mps 756 mmHg 19%
    14:00 +41°C° 0 mm 5 mps 755 mmHg 22%
    15:00 +41°C° 0 mm 5 mps 755 mmHg 25%
    16:00 +39°C° 0 mm 5 mps 755 mmHg 29%
    17:00 +37°C° 0 mm 5 mps 755 mmHg 34%
    18:00 +36°C° 0 mm 5 mps 755 mmHg 38%
    19:00 +36°C° 0 mm 4 mps 755 mmHg 38%
    20:00 +35°C° 0 mm 4 mps 755 mmHg 39%
    21:00 +35°C° 0 mm 4 mps 756 mmHg 39%
    22:00 +35°C° 0 mm 3 mps 756 mmHg 39%
    23:00 +34°C° 0 mm 3 mps 755 mmHg 39%

    Day after tomorrow, 25 May, Saturday

    Time Temperature Precipitation Wind Pressure Humidity
    00:00 +34°C° 0 mm 3 mps 755 mmHg 39%
    01:00 +34°C° 0 mm 2 mps 755 mmHg 40%
    02:00 +32°C° 0 mm 2 mps 755 mmHg 40%
    03:00 +32°C° 0 mm 1 mps 755 mmHg 41%
    04:00 +32°C° 0 mm 2 mps 755 mmHg 40%
    05:00 +32°C° 0 mm 2 mps 755 mmHg 39%
    06:00 +34°C° 0 mm 2 mps 756 mmHg 38%
    07:00 +34°C° 0 mm 2 mps 756 mmHg 36%
    08:00 +34°C° 0 mm 1 mps 756 mmHg 33%
    09:00 +35°C° 0 mm 1 mps 757 mmHg 31%
    10:00 +36°C° 0 mm 1 mps 756 mmHg 29%
    11:00 +37°C° 0 mm 1 mps 756 mmHg 26%
    12:00 +39°C° 0 mm 1 mps 756 mmHg 24%
    13:00 +39°C° 0 mm 1 mps 756 mmHg 22%
    14:00 +40°C° 0 mm 2 mps 755 mmHg 20%
    15:00 +40°C° 0 mm 2 mps 755 mmHg 18%
    16:00 +39°C° 0 mm 3 mps 754 mmHg 20%
    17:00 +39°C° 0 mm 3 mps 754 mmHg 23%
    18:00 +38°C° 0 mm 4 mps 754 mmHg 25%
    19:00 +37°C° 0 mm 4 mps 754 mmHg 26%
    20:00 +37°C° 0 mm 3 mps 755 mmHg 28%
    21:00 +36°C° 0 mm 3 mps 755 mmHg 29%
    22:00 +36°C° 0 mm 3 mps 755 mmHg 29%
    23:00 +36°C° 0 mm 4 mps 755 mmHg 29%

    26 May, Sunday

    Time Temperature Precipitation Wind Pressure Humidity
    00:00 +35°C° 0 mm 4 mps 755 mmHg 28%
    01:00 +35°C° 0 mm 3 mps 754 mmHg 31%
    02:00 +34°C° 0 mm 3 mps 754 mmHg 33%
    03:00 +34°C° 0 mm 3 mps 754 mmHg 35%
    04:00 +34°C° 0 mm 2 mps 754 mmHg 34%
    05:00 +33°C° 0 mm 1 mps 754 mmHg 33%
    06:00 +31°C° 0 mm 0 mps 754 mmHg 32%
    07:00 +34°C° 0 mm 1 mps 754 mmHg 30%
    08:00 +35°C° 0 mm 1 mps 755 mmHg 28%
    09:00 +37°C° 0 mm 2 mps 755 mmHg 26%
    10:00 +38°C° 0 mm 2 mps 755 mmHg 25%
    11:00 +37°C° 0 mm 1 mps 755 mmHg 23%
    12:00 +39°C° 0 mm 1 mps 755 mmHg 22%
    13:00 +39°C° 0 mm 1 mps 754 mmHg 21%
    14:00 +40°C° 0 mm 2 mps 754 mmHg 20%
    15:00 +40°C° 0 mm 2 mps 754 mmHg 19%
    16:00 +40°C° 0 mm 2 mps 754 mmHg 20%
    17:00 +39°C° 0 mm 2 mps 754 mmHg 20%
    18:00 +39°C° 0 mm 3 mps 754 mmHg 21%
    19:00 +38°C° 0 mm 3 mps 754 mmHg 23%
    20:00 +37°C° 0 mm 2 mps 754 mmHg 25%
    21:00 +36°C° 0 mm 2 mps 755 mmHg 27%
    22:00 +36°C° 0 mm 2 mps 755 mmHg 28%
    23:00 +36°C° 0 mm 2 mps 754 mmHg 28%

    27 May, Monday

    Time Temperature Precipitation Wind Pressure Humidity
    00:00 +35°C° 0 mm 2 mps 754 mmHg 29%
    01:00 +35°C° 0 mm 2 mps 754 mmHg 30%
    02:00 +34°C° 0 mm 2 mps 753 mmHg 31%
    03:00 +33°C° 0 mm 1 mps 753 mmHg 32%
    04:00 +33°C° 0 mm 1 mps 753 mmHg 32%
    05:00 +34°C° 0 mm 1 mps 754 mmHg 31%
    06:00 +32°C° 0 mm 0 mps 754 mmHg 31%
    07:00 +35°C° 0 mm 1 mps 754 mmHg 29%
    08:00 +35°C° 0 mm 1 mps 754 mmHg 28%
    09:00 +36°C° 0 mm 1 mps 755 mmHg 26%
    10:00 +37°C° 0 mm 1 mps 755 mmHg 24%
    11:00 +39°C° 0 mm 2 mps 754 mmHg 22%
    12:00 +40°C° 0 mm 3 mps 754 mmHg 19%
    13:00 +40°C° 0 mm 3 mps 754 mmHg 19%
    14:00 +40°C° 0 mm 3 mps 754 mmHg 19%
    15:00 +41°C° 0 mm 4 mps 753 mmHg 19%
    16:00 +40°C° 0 mm 3 mps 753 mmHg 21%
    17:00 +39°C° 0 mm 3 mps 753 mmHg 23%
    18:00 +38°C° 0 mm 3 mps 754 mmHg 25%
    19:00 +37°C° 0 mm 2 mps 754 mmHg 26%
    20:00 +37°C° 0 mm 2 mps 754 mmHg 26%
    21:00 +36°C° 0 mm 1 mps 754 mmHg 27%
    22:00 +35°C° 0 mm 1 mps 754 mmHg 27%
    23:00 +35°C° 0 mm 1 mps 753 mmHg 27%

    28 May, Tuesday

    Time Temperature Precipitation Wind Pressure Humidity
    00:00 +32°C° 0 mm 0 mps 753 mmHg 28%
    01:00 +34°C° 0 mm 1 mps 753 mmHg 28%
    02:00 +34°C° 0 mm 1 mps 753 mmHg 28%
    03:00 +34°C° 0 mm 1 mps 753 mmHg 28%
    04:00 +34°C° 0 mm 1 mps 753 mmHg 27%
    05:00 +35°C° 0 mm 2 mps 753 mmHg 27%
    06:00 +36°C° 0 mm 2 mps 754 mmHg 26%
    07:00 +36°C° 0 mm 1 mps 754 mmHg 24%
    08:00 +37°C° 0 mm 1 mps 754 mmHg 22%
    09:00 +36°C° 0 mm 0 mps 755 mmHg 20%
    10:00 +37°C° 0 mm 0 mps 754 mmHg 19%
    11:00 +41°C° 0 mm 1 mps 754 mmHg 18%
    12:00 +41°C° 0 mm 1 mps 753 mmHg 16%
    13:00 +42°C° 0 mm 1 mps 753 mmHg 16%
    14:00 +42°C° 0 mm 1 mps 753 mmHg 15%
    15:00 +43°C° 0 mm 1 mps 752 mmHg 14%
    16:00 +42°C° 0 mm 1 mps 752 mmHg 15%
    17:00 +42°C° 0 mm 2 mps 752 mmHg 15%
    18:00 +41°C° 0 mm 2 mps 752 mmHg 15%
    19:00 +40°C° 0 mm 1 mps 753 mmHg 16%
    20:00 +39°C° 0 mm 1 mps 753 mmHg 16%
    21:00 +36°C° 0 mm 0 mps 753 mmHg 17%
    22:00 +37°C° 0 mm 1 mps 753 mmHg 17%
    23:00 +37°C° 0 mm 1 mps 752 mmHg 18%
    Show more